Time,TemperatureF,DewpointF,PressureIn,WindDirection,WindDirectionDegrees,WindSpeedMPH,WindSpeedGustMPH,Humidity,HourlyPrecipIn,Conditions,Clouds,dailyrainin,SoftwareType,DateUTC
2013-02-10 00:03:00,31.0,19.1,30.25,WSW,244,1.0,2.0,61,0.00,,,0.00,Wunderground v.1.15,2013-02-10 07:03:00,
2013-02-10 00:09:00,31.3,19.0,30.25,WSW,256,1.0,1.0,60,0.00,,,0.00,Wunderground v.1.15,2013-02-10 07:09:00,
2013-02-10 00:15:00,30.6,18.7,30.26,East,84,0.0,2.0,61,0.00,,,0.00,Wunderground v.1.15,2013-02-10 07:15:00,
2013-02-10 00:21:00,29.8,18.4,30.26,East,86,0.0,2.0,62,0.00,,,0.00,Wunderground v.1.15,2013-02-10 07:21:00,
2013-02-10 00:27:00,29.5,18.4,30.26,SW,236,0.0,2.0,63,0.00,,,0.00,Wunderground v.1.15,2013-02-10 07:27:00,
2013-02-10 00:33:00,29.0,18.3,30.25,SW,225,2.0,4.0,64,0.00,,,0.00,Wunderground v.1.15,2013-02-10 07:33:00,
2013-02-10 00:39:00,28.8,18.5,30.26,South,184,2.0,2.0,65,0.00,,,0.00,Wunderground v.1.15,2013-02-10 07:39:00,
2013-02-10 00:45:00,28.6,18.0,30.26,SE,137,1.0,2.0,64,0.00,,,0.00,Wunderground v.1.15,2013-02-10 07:45:00,
2013-02-10 00:51:00,27.8,17.6,30.26,SE,135,0.0,2.0,65,0.00,,,0.00,Wunderground v.1.15,2013-02-10 07:51:00,
2013-02-10 00:57:00,27.7,18.2,30.26,ESE,114,0.0,2.0,67,0.00,,,0.00,Wunderground v.1.15,2013-02-10 07:57:00,
2013-02-10 01:04:00,27.9,18.4,30.26,SW,236,0.0,2.0,67,0.00,,,0.00,Wunderground v.1.15,2013-02-10 08:04:00,
2013-02-10 01:10:00,27.8,17.9,30.26,SSW,207,1.0,1.0,66,0.00,,,0.00,Wunderground v.1.15,2013-02-10 08:10:00,
2013-02-10 01:16:00,27.6,17.7,30.26,SSE,156,1.0,3.0,66,0.00,,,0.00,Wunderground v.1.15,2013-02-10 08:16:00,
2013-02-10 01:22:00,27.1,17.6,30.27,SSE,156,0.0,2.0,67,0.00,,,0.00,Wunderground v.1.15,2013-02-10 08:22:00,
2013-02-10 01:28:00,26.7,17.6,30.27,SE,146,0.0,2.0,68,0.00,,,0.00,Wunderground v.1.15,2013-02-10 08:28:00,
2013-02-10 01:34:00,26.7,17.6,30.27,West,264,0.0,2.0,68,0.00,,,0.00,Wunderground v.1.15,2013-02-10 08:34:00,
2013-02-10 01:40:00,27.0,17.5,30.26,SW,236,0.0,2.0,67,0.00,,,0.00,Wunderground v.1.15,2013-02-10 08:40:00,
2013-02-10 01:46:00,26.3,16.5,30.26,SSW,208,1.0,2.0,66,0.00,,,0.00,Wunderground v.1.15,2013-02-10 08:46:00,
2013-02-10 01:52:00,25.4,16.3,30.27,South,184,1.0,2.0,68,0.00,,,0.00,Wunderground v.1.15,2013-02-10 08:52:00,
2013-02-10 01:58:00,25.2,16.1,30.27,SSW,212,1.0,2.0,68,0.00,,,0.00,Wunderground v.1.15,2013-02-10 08:58:00,
2013-02-10 02:04:00,25.0,15.9,30.27,SSW,205,1.0,2.0,68,0.00,,,0.00,Wunderground v.1.15,2013-02-10 09:04:00,
2013-02-10 02:10:00,25.0,16.3,30.27,WSW,238,2.0,3.0,69,0.00,,,0.00,Wunderground v.1.15,2013-02-10 09:10:00,
2013-02-10 02:16:00,25.7,16.6,30.27,WSW,242,1.0,3.0,68,0.00,,,0.00,Wunderground v.1.15,2013-02-10 09:16:00,
2013-02-10 02:22:00,25.3,15.9,30.27,SSE,165,1.0,2.0,67,0.00,,,0.00,Wunderground v.1.15,2013-02-10 09:22:00,
2013-02-10 02:28:00,24.4,15.3,30.27,SW,225,0.0,2.0,68,0.00,,,0.00,Wunderground v.1.15,2013-02-10 09:28:00,
2013-02-10 02:34:00,24.2,15.5,30.27,SSW,203,1.0,2.0,69,0.00,,,0.00,Wunderground v.1.15,2013-02-10 09:34:00,
2013-02-10 02:40:00,24.5,15.8,30.27,SSW,200,0.0,2.0,69,0.00,,,0.00,Wunderground v.1.15,2013-02-10 09:40:00,
2013-02-10 02:46:00,24.4,15.7,30.27,SSW,200,1.0,2.0,69,0.00,,,0.00,Wunderground v.1.15,2013-02-10 09:46:00,
2013-02-10 02:52:00,23.8,15.4,30.27,SSW,198,1.0,2.0,70,0.00,,,0.00,Wunderground v.1.15,2013-02-10 09:52:00,
2013-02-10 02:58:00,23.4,15.7,30.27,WSW,253,1.0,2.0,72,0.00,,,0.00,Wunderground v.1.15,2013-02-10 09:58:00,
2013-02-10 03:04:00,23.6,15.9,30.27,SW,235,0.0,2.0,72,0.00,,,0.00,Wunderground v.1.15,2013-02-10 10:04:00,
2013-02-10 03:10:00,24.4,17.3,30.27,SW,214,0.0,2.0,74,0.00,,,0.00,Wunderground v.1.15,2013-02-10 10:10:00,
2013-02-10 03:16:00,24.4,16.3,30.27,SSE,159,1.0,2.0,71,0.00,,,0.00,Wunderground v.1.15,2013-02-10 10:16:00,
2013-02-10 03:22:00,23.8,15.8,30.27,SSW,210,2.0,2.0,71,0.00,,,0.00,Wunderground v.1.15,2013-02-10 10:22:00,
2013-02-10 03:28:00,23.6,15.2,30.27,SW,222,1.0,3.0,70,0.00,,,0.00,Wunderground v.1.15,2013-02-10 10:28:00,
2013-02-10 03:34:00,23.6,15.9,30.27,SSW,210,2.0,2.0,72,0.00,,,0.00,Wunderground v.1.15,2013-02-10 10:34:00,
2013-02-10 03:40:00,23.5,15.8,30.26,SSW,197,2.0,2.0,72,0.00,,,0.00,Wunderground v.1.15,2013-02-10 10:40:00,
2013-02-10 03:46:00,23.5,15.8,30.26,SW,217,2.0,2.0,72,0.00,,,0.00,Wunderground v.1.15,2013-02-10 10:46:00,
2013-02-10 03:52:00,23.2,15.8,30.26,SSW,194,2.0,3.0,73,0.00,,,0.00,Wunderground v.1.15,2013-02-10 10:52:00,
2013-02-10 03:58:00,23.2,15.8,30.26,SSW,211,2.0,3.0,73,0.00,,,0.00,Wunderground v.1.15,2013-02-10 10:58:00,
2013-02-10 04:04:00,23.3,16.5,30.26,West,264,1.0,2.0,75,0.00,,,0.00,Wunderground v.1.15,2013-02-10 11:04:00,
2013-02-10 04:10:00,24.1,16.7,30.26,SSW,203,1.0,2.0,73,0.00,,,0.00,Wunderground v.1.15,2013-02-10 11:10:00,
2013-02-10 04:16:00,23.8,16.1,30.26,South,170,1.0,2.0,72,0.00,,,0.00,Wunderground v.1.15,2013-02-10 11:16:00,
2013-02-10 04:22:00,23.5,16.1,30.26,SSW,193,1.0,2.0,73,0.00,,,0.00,Wunderground v.1.15,2013-02-10 11:22:00,
2013-02-10 04:28:00,23.4,16.0,30.26,SW,219,1.0,3.0,73,0.00,,,0.00,Wunderground v.1.15,2013-02-10 11:28:00,
2013-02-10 04:34:00,23.2,16.1,30.26,South,186,2.0,2.0,74,0.00,,,0.00,Wunderground v.1.15,2013-02-10 11:34:00,
2013-02-10 04:40:00,23.4,16.3,30.26,SSW,213,1.0,2.0,74,0.00,,,0.00,Wunderground v.1.15,2013-02-10 11:40:00,
2013-02-10 04:46:00,23.5,16.4,30.26,SSW,211,1.0,2.0,74,0.00,,,0.00,Wunderground v.1.15,2013-02-10 11:46:00,
2013-02-10 04:52:00,23.6,16.2,30.26,SSW,198,1.0,2.0,73,0.00,,,0.00,Wunderground v.1.15,2013-02-10 11:52:00,
2013-02-10 04:58:00,23.7,16.3,30.26,SW,217,1.0,2.0,73,0.00,,,0.00,Wunderground v.1.15,2013-02-10 11:58:00,
2013-02-10 05:04:00,23.8,16.1,30.26,SSW,211,1.0,2.0,72,0.00,,,0.00,Wunderground v.1.15,2013-02-10 12:04:00,
2013-02-10 05:10:00,23.6,15.9,30.26,WSW,257,2.0,2.0,72,0.00,,,0.00,Wunderground v.1.15,2013-02-10 12:10:00,
2013-02-10 05:16:00,23.7,16.0,30.27,South,187,1.0,2.0,72,0.00,,,0.00,Wunderground v.1.15,2013-02-10 12:16:00,
2013-02-10 05:22:00,23.8,16.1,30.27,SW,217,1.0,2.0,72,0.00,,,0.00,Wunderground v.1.15,2013-02-10 12:22:00,
2013-02-10 05:28:00,23.6,15.9,30.27,South,183,1.0,2.0,72,0.00,,,0.00,Wunderground v.1.15,2013-02-10 12:28:00,
2013-02-10 05:34:00,23.7,16.0,30.27,SSW,213,1.0,2.0,72,0.00,,,0.00,Wunderground v.1.15,2013-02-10 12:34:00,
2013-02-10 05:40:00,23.6,15.9,30.27,SSW,205,1.0,2.0,72,0.00,,,0.00,Wunderground v.1.15,2013-02-10 12:40:00,
2013-02-10 05:46:00,23.5,15.8,30.28,WSW,246,1.0,2.0,72,0.00,,,0.00,Wunderground v.1.15,2013-02-10 12:46:00,
2013-02-10 05:52:00,24.0,16.0,30.28,SW,221,1.0,2.0,71,0.00,,,0.00,Wunderground v.1.15,2013-02-10 12:52:00,
2013-02-10 05:58:00,24.1,15.7,30.28,SW,236,1.0,2.0,70,0.00,,,0.00,Wunderground v.1.15,2013-02-10 12:58:00,
2013-02-10 06:04:00,24.0,16.0,30.28,SW,233,1.0,2.0,71,0.00,,,0.00,Wunderground v.1.15,2013-02-10 13:04:00,
2013-02-10 06:10:00,23.9,15.9,30.28,SSW,194,1.0,1.0,71,0.00,,,0.00,Wunderground v.1.15,2013-02-10 13:10:00,
2013-02-10 06:16:00,24.2,16.1,30.28,SW,232,1.0,2.0,71,0.00,,,0.00,Wunderground v.1.15,2013-02-10 13:16:00,
2013-02-10 06:22:00,24.2,15.8,30.28,SW,214,1.0,2.0,70,0.00,,,0.00,Wunderground v.1.15,2013-02-10 13:22:00,
2013-02-10 06:28:00,23.7,15.7,30.28,SSW,210,1.0,2.0,71,0.00,,,0.00,Wunderground v.1.15,2013-02-10 13:28:00,
2013-02-10 06:34:00,23.6,15.6,30.28,SW,214,1.0,2.0,71,0.00,,,0.00,Wunderground v.1.15,2013-02-10 13:34:00,
2013-02-10 06:40:00,23.4,15.7,30.28,South,186,1.0,1.0,72,0.00,,,0.00,Wunderground v.1.15,2013-02-10 13:40:00,
2013-02-10 06:46:00,23.2,15.8,30.29,SW,217,1.0,2.0,73,0.00,,,0.00,Wunderground v.1.15,2013-02-10 13:46:00,
2013-02-10 06:52:00,23.0,16.3,30.28,South,191,1.0,2.0,75,0.00,,,0.00,Wunderground v.1.15,2013-02-10 13:52:00,
2013-02-10 06:58:00,23.1,16.7,30.29,South,191,2.0,2.0,76,0.00,,,0.00,Wunderground v.1.15,2013-02-10 13:58:00,
2013-02-10 07:04:00,23.2,16.8,30.29,SW,229,1.0,2.0,76,0.00,,,0.00,Wunderground v.1.15,2013-02-10 14:04:00,
2013-02-10 07:10:00,23.7,16.6,30.29,SSW,197,1.0,2.0,74,0.00,,,0.00,Wunderground v.1.15,2013-02-10 14:10:00,
2013-02-10 07:16:00,23.7,16.0,30.29,South,173,1.0,2.0,72,0.00,,,0.00,Wunderground v.1.15,2013-02-10 14:16:00,
2013-02-10 07:22:00,23.6,15.6,30.29,South,179,1.0,2.0,71,0.00,,,0.00,Wunderground v.1.15,2013-02-10 14:22:00,
2013-02-10 07:28:00,23.1,15.4,30.29,SSW,199,1.0,2.0,72,0.00,,,0.00,Wunderground v.1.15,2013-02-10 14:28:00,
2013-02-10 07:34:00,23.2,16.1,30.29,SSW,211,1.0,2.0,74,0.00,,,0.00,Wunderground v.1.15,2013-02-10 14:34:00,
2013-02-10 07:40:00,23.9,17.1,30.29,SW,217,1.0,2.0,75,0.00,,,0.00,Wunderground v.1.15,2013-02-10 14:40:00,
2013-02-10 07:46:00,24.8,17.7,30.29,South,184,1.0,2.0,74,0.00,,,0.00,Wunderground v.1.15,2013-02-10 14:46:00,
2013-02-10 07:52:00,26.0,18.5,30.29,SW,217,1.0,2.0,73,0.00,,,0.00,Wunderground v.1.15,2013-02-10 14:52:00,
2013-02-10 07:58:00,26.7,18.9,30.30,WSW,246,0.0,2.0,72,0.00,,,0.00,Wunderground v.1.15,2013-02-10 14:58:00,
2013-02-10 08:04:00,27.6,19.8,30.30,WSW,245,0.0,2.0,72,0.00,,,0.00,Wunderground v.1.15,2013-02-10 15:04:00,
2013-02-10 08:10:00,28.6,20.1,30.30,SSW,200,0.0,2.0,70,0.00,,,0.00,Wunderground v.1.15,2013-02-10 15:10:00,
2013-02-10 08:16:00,30.9,21.2,30.30,SE,142,0.0,2.0,67,0.00,,,0.00,Wunderground v.1.15,2013-02-10 15:16:00,
2013-02-10 08:22:00,32.1,21.3,30.30,SE,142,0.0,2.0,64,0.00,,,0.00,Wunderground v.1.15,2013-02-10 15:22:00,